Weather reports worldwide

Advertisment
Raleigh-Durham NC, United States of America (72306): temperature & dewpoint: 13.09.2019 13:00:00 - 19.09.2019 13:00:00 (EDT)Raleigh-Durham NC, United States of America (72306): wind speed: 13.09.2019 13:00:00 - 19.09.2019 13:00:00 (EDT)Raleigh-Durham NC, United States of America (72306): wind direction: 13.09.2019 13:00:00 - 19.09.2019 13:00:00 (EDT)Raleigh-Durham NC, United States of America (72306): reduced air pressure: 13.09.2019 13:00:00 - 19.09.2019 13:00:00 (EDT)Raleigh-Durham NC, United States of America (72306): visibility: 13.09.2019 13:00:00 - 19.09.2019 13:00:00 (EDT)Raleigh-Durham NC, United States of America (72306): precipitation: 13.09.2019 13:00:00 - 19.09.2019 13:00:00 (EDT)
Date & Time tt [°C] td [°C] ff [km/h] ff [kn] dd ppp [hPa] vv [km] rr [mm]
19.09.2019 13:00:00 21,7 8,3 13 7 E 1025,5 16 -
19.09.2019 12:00:00 21,1 8,3 15 8 ENE 1025,8 16 -
19.09.2019 11:00:00 19,4 10,6 18 10 NNE 1025,8 16 -
19.09.2019 10:00:00 18,3 11,7 21 11 ENE 1025,9 16 -
19.09.2019 09:00:00 16,7 13,3 11 6 NE 1025,5 16 -
19.09.2019 08:00:00 13,9 12,8 11 6 NE 1025,4 16 0,0
19.09.2019 07:00:00 12,2 11,7 8 4 NNE 1024,9 16 -
19.09.2019 06:00:00 12,2 11,7 0 0 N 1024,3 16 -
19.09.2019 05:00:00 13,3 12,2 0 0 N 1023,8 16 -
19.09.2019 04:00:00 12,8 12,2 8 4 NE 1023,6 16 -
19.09.2019 03:00:00 13,3 12,2 5 3 NNE 1023,5 16 -
19.09.2019 02:00:00 15,0 12,2 5 3 NNE 1023,3 16 0,0
19.09.2019 01:00:00 16,1 12,2 8 4 E 1023,1 16 -
19.09.2019 00:00:00 17,2 12,2 13 7 E 1022,7 16 -
18.09.2019 23:00:00 18,3 12,2 15 8 E 1022,5 16 -
18.09.2019 22:00:00 19,4 11,7 16 9 E 1022,0 16 -
18.09.2019 21:00:00 18,3 11,7 9 5 E 1021,3 16 -
18.09.2019 20:00:00 20,6 11,7 13 7 E 1021,0 16 0,0
18.09.2019 19:00:00 22,8 10,6 13 7 E 1020,5 16 -
18.09.2019 18:00:00 23,9 10,6 15 8 ENE 1020,1 16 -
18.09.2019 17:00:00 24,4 10,6 11 6 ENE 1020,0 16 -
18.09.2019 16:00:00 25,6 11,1 16 9 ENE 1019,8 16 -
18.09.2019 15:00:00 25,6 10,6 21 11 E 1020,3 16 -
18.09.2019 14:00:00 25,0 11,7 15 8 ENE 1020,5 10 0,0
18.09.2019 13:00:00 23,9 12,8 15 8 E 1020,9 16 -
18.09.2019 12:00:00 23,3 12,2 26 14 NE 1021,0 16 -
18.09.2019 11:00:00 22,8 13,3 18 10 NE 1021,1 16 -
18.09.2019 10:00:00 20,0 15,0 9 5 NE 1021,1 16 -
18.09.2019 09:00:00 18,3 15,0 9 5 NE 1020,6 16 -
18.09.2019 08:00:00 17,8 15,0 8 4 NNE 1020,7 16 0,0
18.09.2019 07:00:00 16,1 14,4 9 5 NE 1019,9 16 -
18.09.2019 06:00:00 17,2 15,0 0 0 N 1019,4 16 -
18.09.2019 05:00:00 18,3 15,6 8 4 NNE 1019,3 16 -
18.09.2019 04:00:00 19,4 16,7 8 4 NNE 1019,2 16 -
18.09.2019 03:00:00 19,4 16,1 13 7 NE 1018,7 16 -
18.09.2019 02:00:00 19,4 17,8 5 3 ENE 1018,5 16 0,0
18.09.2019 01:00:00 20,6 17,2 15 8 E 1017,9 16 -
18.09.2019 00:00:00 20,6 18,9 8 4 NE 1018,2 16 -
17.09.2019 23:00:00 20,6 18,9 8 4 NNE 1018,3 16 -
17.09.2019 22:00:00 21,1 18,9 11 6 ENE 1017,7 16 -
17.09.2019 21:00:00 21,7 20,0 11 6 NE 1017,4 16 -
17.09.2019 20:00:00 21,7 20,6 15 8 ENE 1016,7 16 0,3
17.09.2019 19:00:00 22,2 20,6 18 10 NE 1016,0 13 1,5
17.09.2019 18:00:00 27,8 18,3 11 6 E 1014,9 16 -
17.09.2019 17:00:00 29,4 18,3 15 8 ENE 1014,5 16 -
17.09.2019 16:00:00 30,0 17,8 18 10 SE 1014,8 16 -
17.09.2019 15:00:00 30,0 17,2 15 8 E 1015,1 16 -
17.09.2019 14:00:00 30,6 16,7 13 7 NE 1015,5 16 0,0
17.09.2019 13:00:00 29,4 16,7 13 7 ENE 1015,8 16 -
17.09.2019 12:00:00 28,9 17,2 16 9 ENE 1016,0 16 -
17.09.2019 11:00:00 27,8 20,0 16 9 NE 1016,2 16 -
17.09.2019 10:00:00 26,1 20,0 11 6 ENE 1015,9 16 -
17.09.2019 09:00:00 23,9 19,4 8 4 - 1015,7 16 -
17.09.2019 08:00:00 20,6 19,4 0 0 N 1015,2 16 0,0
17.09.2019 07:00:00 19,4 18,9 0 0 N 1014,6 11 -
17.09.2019 06:00:00 19,4 18,9 0 0 N 1014,2 13 -
17.09.2019 05:00:00 19,4 18,9 0 0 N 1013,9 13 -
17.09.2019 04:00:00 20,6 18,9 0 0 N 1014,0 16 -
17.09.2019 03:00:00 21,1 18,9 0 0 N 1014,4 16 -
17.09.2019 02:00:00 20,6 19,4 0 0 N 1014,7 16 0,0
17.09.2019 01:00:00 21,7 19,4 0 0 N 1014,8 16 -
17.09.2019 00:00:00 22,8 18,9 0 0 N 1015,1 16 -
16.09.2019 23:00:00 22,8 19,4 0 0 N 1014,9 16 -
16.09.2019 22:00:00 23,3 18,9 0 0 N 1014,9 16 -
16.09.2019 21:00:00 25,6 18,9 9 5 SE 1014,5 16 -
16.09.2019 20:00:00 26,7 18,3 9 5 SE 1014,4 16 0,0
16.09.2019 19:00:00 29,4 18,3 11 6 SE 1014,3 16 -
16.09.2019 18:00:00 31,1 15,0 8 4 E 1014,2 16 -
16.09.2019 17:00:00 31,7 16,1 11 6 ENE 1014,0 16 -
16.09.2019 16:00:00 31,7 16,7 16 9 E 1014,6 16 -
16.09.2019 15:00:00 31,7 17,2 9 5 NE 1015,6 16 -
16.09.2019 14:00:00 31,1 16,1 5 3 - 1016,5 16 0,0
16.09.2019 13:00:00 30,0 16,7 8 4 E 1017,3 16 -
16.09.2019 12:00:00 28,3 18,3 11 6 NNE 1018,0 16 -
16.09.2019 11:00:00 26,7 21,7 16 9 ENE 1018,6 16 -
16.09.2019 10:00:00 23,9 22,2 8 4 NE 1019,0 16 -
16.09.2019 09:00:00 21,7 21,7 9 5 NNE 1018,8 0,4 -
16.09.2019 08:00:00 21,1 21,1 0 0 N 1018,5 0,4 0,0
16.09.2019 07:00:00 20,6 20,6 5 3 NE 1018,2 0,4 -
16.09.2019 06:00:00 20,6 20,6 0 0 N 1017,8 0,4 -
16.09.2019 05:00:00 21,1 21,1 0 0 N 1017,8 3,2 -
16.09.2019 04:00:00 21,1 20,6 5 3 NNW 1017,7 16 -
16.09.2019 03:00:00 21,7 21,1 0 0 N 1018,1 13 -
16.09.2019 02:00:00 22,2 21,1 5 3 E 1018,3 15 0,0
16.09.2019 01:00:00 23,3 21,1 9 5 E 1018,5 16 -
16.09.2019 00:00:00 23,3 21,1 9 5 ENE 1018,7 16 -
15.09.2019 23:00:00 22,8 21,1 8 4 ENE 1018,5 16 -
15.09.2019 22:00:00 22,8 21,1 5 3 NNE 1018,5 15 -
15.09.2019 21:00:00 23,9 21,7 5 3 NE 1018,4 15 -
15.09.2019 20:00:00 26,7 21,1 5 3 E 1018,2 16 0,0
15.09.2019 19:00:00 28,3 20,6 8 4 E 1018,2 16 -
15.09.2019 18:00:00 28,9 20,6 11 6 ENE 1018,2 16 -
15.09.2019 17:00:00 29,4 20,6 13 7 NE 1018,2 16 -
15.09.2019 16:00:00 29,4 20,6 9 5 ENE 1018,5 16 -
15.09.2019 15:00:00 28,9 20,6 11 6 NE 1019,3 16 -
15.09.2019 14:00:00 30,0 20,6 13 7 E 1020,0 16 0,0
15.09.2019 13:00:00 27,8 20,0 5 3 ENE 1020,6 16 -
15.09.2019 12:00:00 27,8 20,0 9 5 - 1020,8 16 -
15.09.2019 11:00:00 27,8 20,6 9 5 SE 1021,2 16 -
15.09.2019 10:00:00 26,1 20,6 0 0 N 1021,5 16 -
15.09.2019 09:00:00 23,9 21,7 0 0 N 1021,3 16 -
15.09.2019 08:00:00 20,6 20,0 0 0 N 1021,4 16 0,0
15.09.2019 07:00:00 19,4 19,4 0 0 N 1021,0 16 -
15.09.2019 06:00:00 19,4 19,4 0 0 N 1020,7 10 -
15.09.2019 05:00:00 20,0 19,4 0 0 N 1020,6 6 -
15.09.2019 04:00:00 20,6 20,0 0 0 N 1020,8 11 -
15.09.2019 03:00:00 21,1 20,0 0 0 N 1021,0 16 -
15.09.2019 02:00:00 21,1 20,0 0 0 N 1021,4 16 0,0
15.09.2019 01:00:00 21,1 20,0 0 0 N 1021,3 16 -
15.09.2019 00:00:00 21,1 20,0 0 0 N 1021,5 16 -
14.09.2019 23:00:00 22,2 20,6 0 0 N 1021,6 16 -
14.09.2019 22:00:00 22,8 20,6 0 0 N 1021,7 16 -
14.09.2019 21:00:00 23,9 20,6 5 3 ESE 1021,7 16 -
14.09.2019 20:00:00 24,4 20,0 0 0 N 1022,0 16 0,0
14.09.2019 19:00:00 26,7 19,4 5 3 SSE 1021,9 16 -
14.09.2019 18:00:00 27,8 19,4 9 5 E 1021,8 16 -
14.09.2019 17:00:00 27,8 19,4 8 4 E 1022,2 16 -
14.09.2019 16:00:00 27,8 19,4 9 5 E 1022,5 16 -
14.09.2019 15:00:00 27,2 19,4 8 4 ENE 1023,2 16 -
14.09.2019 14:00:00 27,8 19,4 0 0 N 1023,9 16 0,0
14.09.2019 13:00:00 26,7 20,0 15 8 E 1024,2 16 -
14.09.2019 12:00:00 26,7 20,0 9 5 SSE 1025,0 16 -
14.09.2019 11:00:00 25,0 20,0 5 3 - 1025,3 16 -
14.09.2019 10:00:00 22,8 19,4 11 6 ENE 1025,6 16 -
14.09.2019 09:00:00 21,1 18,9 8 4 NE 1025,5 16 -
14.09.2019 08:00:00 20,6 19,4 8 4 NNE 1025,5 16 0,0
14.09.2019 07:00:00 20,6 18,9 8 4 NE 1024,9 15 -
14.09.2019 06:00:00 20,6 18,9 9 5 NE 1024,6 15 -
14.09.2019 05:00:00 20,6 18,9 8 4 NE 1024,4 15 -
14.09.2019 04:00:00 21,1 18,9 8 4 NE 1024,5 16 -
14.09.2019 03:00:00 21,1 18,9 9 5 NNE 1024,5 16 -
14.09.2019 02:00:00 21,1 18,9 8 4 ENE 1024,9 16 0,0
14.09.2019 01:00:00 21,1 18,9 9 5 E 1025,2 16 -
14.09.2019 00:00:00 21,7 18,9 16 9 E 1025,7 16 -
13.09.2019 23:00:00 22,2 18,9 18 10 ENE 1025,7 16 -
13.09.2019 22:00:00 22,8 19,4 16 9 E 1025,8 16 -
13.09.2019 21:00:00 22,8 20,6 15 8 E 1025,3 16 -
13.09.2019 20:00:00 22,8 20,0 21 11 E 1024,5 16 -
13.09.2019 19:00:00 23,3 20,6 21 11 E 1024,2 16 -
13.09.2019 18:00:00 23,9 21,7 16 9 ENE 1024,1 16 0,0
13.09.2019 17:00:00 25,0 21,7 21 11 E 1023,7 16 0,0
13.09.2019 16:00:00 25,0 22,2 18 10 ENE 1023,6 16 0,3
13.09.2019 15:00:00 27,2 21,1 16 9 ENE 1023,6 16 -
13.09.2019 14:00:00 26,1 21,1 16 9 ENE 1024,2 16 0,0
13.09.2019 13:00:00 25,6 21,1 13 7 E 1024,6 16 -

tt = temperature
td = dewpoint
ff = wind speed
dd = wind direction
ppp = reduced air pressure
vv = visibility
rr = precipitation

Next stations